Location: Allentsteig
(48.6833°N, 15.3167°E)
Time: 17:08:56
(UTC+00:00)

Cosmos 2084 Rocket - Pass Details

Date: 18 September 2020
Orbit: 545 x 636 km, 62.8° (Epoch: 30 October)

Event Time Altitude Azimuth Distance (km) Brightness Sun altitude
Rises 17:30:51 0° 317° (NW) 2,849 7.9 -5.2°
Reaches altitude 10° 17:33:05 10° 317° (NW) 1,957 7.0 -5.5°
Maximum altitude 17:37:32 87° 229° (SW) 623 3.6 -6.3°
Drops below altitude 10° 17:42:04 10° 140° (SE) 1,994 5.7 -7.0°
Enters shadow 17:43:53 - 140° (SE) 2,712 6.4 -7.3°
